Regional Weather Roundup
Issued by NWS

Home | Current Version | Previous Version | Text Only | Print | Product List | Glossary On
Versions: 1 2 3 4 5 6 7 8 9 10 11 12 13 14 15 16 17 18 19 20 21 22 23 24 25 26 27 28 29 30 31 32 33 34 35 36 37 38 39 40 41 42 43 44 45 46 47 48 49 50
000
ASPQ40 PGUM 212112
RWRPQ
WEATHER ROUNDUP FOR THE MARIANAS AND MICRONESIA
NATIONAL WEATHER SERVICE TIYAN GU
700 AM CHST TUE AUG 22 2017

GUZ001>004-212200-
MARIANA ISLANDS-

CITY           SKY/WX    TMP DP  RH WIND       PRES   REMARKS
GUAM AIRPORT   SUNNY     81  75  83 E3        29.86R
ANDERSEN AFB   PTSUNNY   79  73  83 E5        29.91S
ROTA AIRPORT   PTSUNNY   79  73  83 E5        29.85S
TINIAN AP      MOSUNNY   81  75  83 NE2       29.84R
SAIPAN AP      PTSUNNY   86  77  74 NE3       29.85R HX  97

$$

PMZ161-212200-
REPUBLIC OF PALAU-

CITY           SKY/WX    TMP DP  RH WIND       PRES   REMARKS
KOROR AP       NOT AVBL
KOROR WSO      CLOUDY    81  77  89 CALM      29.77F

$$

PMZ171>174-212200-
FEDERATED STATES OF MICRONESIA-

CITY           SKY/WX    TMP DP  RH WIND       PRES   REMARKS
YAP AIRPORT    CLOUDY    77  75  94 VRB2      29.77
CHUUK AP       CLOUDY    82  75  78 W7        29.85R
POHNPEI AP     CLOUDY    82  77  83 S5        29.86S HX  91
POHNPEI WSO    NOT AVBL
KOSRAE AP      LGT RAIN  79  73  83 SE6       29.88

$$

PMZ181-212200-
REPUBLIC OF THE MARSHALL ISLANDS-

CITY           SKY/WX    TMP DP  RH WIND       PRES   REMARKS
KWAJALEIN AP   SUNNY     86  75  70 SE8       29.88R HX  95
MAJURO AP      PTSUNNY   86  75  70 S7        29.86  HX  95
MAJURO WSO     MOSUNNY   86  77  74 S7        29.84R HX  97

$$




USA.gov is the U.S. government's official web portal to all federal, state and local government web resources and services.